Regional Weather Roundup
Issued by NWS State College, PA

Home | Current Version | Previous Version | Graphics & Text | Print | Product List | Glossary On
Versions: 1 2 3 4 5 6 7 8 9 10 11 12 13 14 15 16 17 18 19 20 21 22 23 24 25 26 27 28 29 30 31 32 33 34 35 36 37 38 39 40 41 42 43 44 45 46 47 48 49 50
000
ASUS41 KCTP 242310
RWRCTP

REGIONAL WEATHER ROUNDUP
NATIONAL WEATHER SERVICE STATE COLLEGE PA
600 PM EST WED DEC 24 2014

Note: "fair" indicates few or no clouds below 12,000 feet with no
significant weather and/or obstructions to visibility.

* = STATION THAT DOES NOT REPORT PRECIPITATION /E.G. RAIN...SNOW...ETC/
    THUNDER OR FOG.

PAZ002>004-007>009-013>016-020>023-029>032-250000-
WESTERN PENNSYLVANIA

CITY           SKY/WX    TMP DP  RH WIND       PRES   REMARKS
ERIE           CLOUDY    57  49  74 S12G23    29.32F
MEADVILLE      CLOUDY    53  48  83 VRB5      29.35F
FRANKLIN*      CLOUDY    52  46  82 SE12      29.40F
NEW CASTLE       N/A     56  52  86 SE8       29.37F
BEAVER COUNTY  NOT AVBL
BUTLER*        CLOUDY    54  48  82 SE7       29.42F
PITTSBURGH INT CLOUDY    56  52  86 SE6       29.39F
PITTSBURGH     MOCLDY    56  49  77 SE7       29.40F
INDIANA*       PTCLDY    54  48  82 SE9G16    29.50R
LATROBE        MOCLDY    55  50  82 CALM      29.46F
WASHINGTON CO* NOT AVBL
$$

PAZ004>006-010>012-017>019-024>028-033>037-041-042-045-046-049>053-250000-
CENTRAL PENNSYLVANIA

CITY           SKY/WX    TMP DP  RH WIND       PRES   REMARKS
BRADFORD       CLOUDY    47  45  93 S6        29.46F
DUBOIS         CLOUDY    47  45  93 SE8       29.46F
CLEARFIELD     CLOUDY    47  46  97 CALM      29.48F
JOHNSTOWN      CLOUDY    46  44  93 S9        29.49R
ALTOONA        CLOUDY    46  45  96 S10       29.54R FOG
STATE COLLEGE  CLOUDY    46  45  93 CALM      29.51F
WILLIAMSPORT   CLOUDY    50  47  89 E13       29.53F
SELINSGROVE    CLOUDY    47  45  93 E3        29.57F FOG
FT INDIANTOWN  CLOUDY    50  50 100 NE1       29.59R FOG
CAPITAL CITY   FOG       48  47  96 CALM      29.60R VSB 1/2
HARRISBURG     FOG       47  47 100 NW3       29.58F VSB 1/2
YORK           CLOUDY    49  49 100 CALM      29.59S FOG
$$

PAZ038>040-043-044-047-048-054-055-060>062-067>071-250000-
EASTERN PENNSYLVANIA

CITY           SKY/WX    TMP DP  RH WIND       PRES   REMARKS
SCRANTON       LGT RAIN  51  49  92 NE5       29.58F
MOUNT POCONO   FOG       47  46  97 SE3       29.62S VSB 1/2
ALLENTOWN      CLOUDY    50  48  93 CALM      29.63F FOG
QUAKERTOWN*    NOT AVBL
READING        FOG       50  49  96 NW7       29.57F VSB 1
LANCASTER      FOG       52  51  97 CALM      29.59F VSB 1/4
COATESVILLE    CLOUDY    57  57 100 SE7       29.58F FOG
POTTSTOWN      CLOUDY    52  52 100 NE3       29.62F FOG
BLUE BELL      CLOUDY    61  61 100 SW8       29.62F
DOYLESTOWN     CLOUDY    50  50 100 CALM      29.62F FOG
WILLOW GROVE   NOT AVBL
NORTH PHILA    CLOUDY    65  60  84 SW12G18   29.64F
PHILADELPHIA   CLOUDY    62  59  90 SW9       29.63F
$$



USA.gov is the U.S. government's official web portal to all federal, state and local government web resources and services.